Location: Casco Millpond
(44.5581°N, 87.6111°W)
Time: 22:12:59
(UTC+00:00)

Cosmos 44 - Pass Details

Date: 16 January 2026
Orbit: 570 x 780 km, 65.1° (Epoch: 13 February)

Event Time Altitude Azimuth Distance (km) Brightness Sun altitude
Exits shadow 12:49:03 - 311° (NW) 2,657 5.7 -6.3°
Reaches altitude 10° 12:50:02 10° 307° (NW) 2,325 5.4 -6.1°
Maximum altitude 12:54:41 31° 247° (WSW) 1,356 4.5 -5.4°
Drops below altitude 10° 12:59:19 10° 187° (S) 2,318 6.3 -4.6°
Sets 13:01:56 0° 177° (S) 3,229 7.2 -4.2°
